DW3212 Weather Reports


Display with metric or nautical units.
time (UTC)temp
F
wind
direction
speed
MPH
gust
MPH
rain 1hr
in
rain 24hr
in
rain mn
in
humidity
%
barometer
mb
20260508133056 44 0.0 0.0 0.00 0.00 0.00 51 1009.0
20260508131603 43 0.0 0.0 0.00 0.00 0.00 59 1009.0
20260508130111 43 0.0 0.0 0.00 0.00 0.00 62 1009.0
20260508124558 40 0.0 0.0 0.00 0.00 0.00 64 1008.8
20260508123105 38 0.0 0.0 0.00 0.00 0.00 71 1009.0
20260508121607 36 0.0 0.0 0.00 0.00 0.00 74 1009.2
20260508120058 35 0.0 0.0 0.00 0.00 0.00 75 1009.2
20260508114557 35 0.0 0.0 0.00 0.01 0.00 72 1009.2
20260508113102 35 0.0 0.0 0.00 0.01 0.00 70 1009.1
20260508111557 35 0.0 0.0 0.00 0.01 0.00 69 1008.9
20260508110057 35 0.0 0.0 0.00 0.01 0.00 69 1008.8
20260508104621 35 0.0 0.0 0.00 0.01 0.00 68 1008.6
20260508103056 35 0.0 0.0 0.00 0.01 0.00 67 1008.4
20260508101554 34 0.0 0.0 0.00 0.01 0.00 68 1008.2
20260508100057 34 0.0 0.0 0.00 0.01 0.00 69 1007.9
20260508094556 34 0.0 0.0 0.00 0.01 0.00 67 1007.9
20260508093101 34 0.0 0.0 0.00 0.01 0.00 67 1007.9
20260508091601 34 0.0 0.0 0.00 0.01 0.00 66 1007.6
20260508090108 35 0.0 0.0 0.00 0.01 0.00 64 1007.6
20260508084556 35 0.0 0.0 0.00 0.01 0.00 64 1007.6
20260508083113 36 0.0 0.0 0.00 0.01 0.00 63 1007.6
20260508081601 36 0.0 0.0 0.00 0.01 0.00 62 1007.4
20260508080111 36 0.0 0.0 0.00 0.01 0.00 62 1007.3
20260508074556 37 0.0 0.0 0.00 0.01 0.00 61 1007.4
20260508073055 37 0.0 0.0 0.00 0.01 0.00 61 1007.3
20260508071603 37 0.0 0.0 0.00 0.01 0.00 61 1007.2
20260508070141 37 0.0 0.0 0.00 0.01 0.00 61 1006.9
20260508064608 37 0.0 0.0 0.00 0.01 0.00 60 1007.0
20260508063056 37 0.0 0.0 0.00 0.01 0.00 60 1007.1
20260508061604 37 0.0 0.0 0.00 0.01 0.00 61 1007.1
20260508060055 37 0.0 0.0 0.00 0.01 0.00 59 1007.3
20260508054558 37 0.0 0.0 0.00 0.01 0.00 59 1007.4
20260508053105 38 0.0 0.0 0.00 0.01 0.00 59 1007.4
20260508051557 38 0.0 0.0 0.00 0.01 0.00 59 1007.5
20260508050100 38 0.0 0.0 0.00 0.01 0.00 59 1007.5
20260508044554 38 0.0 0.0 0.00 0.01 0.00 60 1007.6
20260508043102 38 0.0 0.0 0.00 0.01 0.00 58 1007.6
20260508041554 37 0.0 0.0 0.00 0.01 0.00 60 1007.9
20260508040057 38 0.0 0.0 0.00 0.01 0.00 58 1007.9
20260508034554 38 0.0 0.0 0.00 0.01 0.01 58 1008.0
20260508033055 38 0.0 0.0 0.00 0.01 0.01 58 1008.0
20260508031558 38 0.0 0.0 0.00 0.01 0.01 57 1008.0
20260508024600 38 0.0 0.0 0.00 0.01 0.01 55 1008.1
20260508023059 39 0.0 0.0 0.00 0.01 0.01 53 1008.1
20260508021603 40 0.0 0.0 0.00 0.01 0.01 50 1008.1
20260508020057 41 0.0 0.0 0.00 0.01 0.01 49 1008.0
20260508014601 41 0.0 0.0 0.00 0.02 0.01 48 1007.9
20260508013105 41 0.0 0.0 0.00 0.02 0.01 49 1007.6
20260508011558 41 0.0 0.0 0.00 0.02 0.01 51 1007.4
20260508010057 42 0.0 0.0 0.00 0.02 0.01 51 1007.2
20260508004601 42 0.0 0.0 0.00 0.04 0.01 51 1007.1
20260508003056 42 0.0 0.0 0.00 0.04 0.01 53 1006.9
20260508001557 43 0.0 0.0 0.00 0.04 0.01 51 1006.8
20260508000055 43 0.0 0.0 0.00 0.04 0.01 51 1006.8
20260507234555 43 0.0 0.0 0.00 0.06 0.01 52 1006.6
20260507233054 44 0.0 0.0 0.00 0.06 0.01 50 1006.5
20260507231557 44 0.0 0.0 0.00 0.06 0.01 51 1006.4
20260507230110 45 0.0 0.0 0.00 0.06 0.01 49 1006.4
20260507224556 46 0.0 0.0 0.00 0.09 0.01 45 1006.5
20260507223053 47 0.0 0.0 0.00 0.09 0.01 46 1006.4
20260507221600 47 0.0 0.0 0.00 0.09 0.01 49 1006.5
20260507220057 47 0.0 0.0 0.00 0.09 0.01 47 1006.4
20260507214556 47 0.0 0.0 0.00 0.12 0.01 48 1006.3
20260507213105 47 0.0 0.0 0.00 0.12 0.01 47 1006.3
20260507211557 47 0.0 0.0 0.00 0.12 0.01 48 1006.2
20260507210057 48 0.0 0.0 0.00 0.12 0.01 48 1006.2
20260507204600 47 0.0 0.0 0.00 0.18 0.01 49 1006.1
20260507203055 48 0.0 0.0 0.00 0.18 0.01 50 1006.2
20260507201604 47 0.0 0.0 0.00 0.18 0.01 50 1006.2
20260507200056 47 0.0 0.0 0.00 0.18 0.01 51 1006.4
20260507194603 49 0.0 0.0 0.00 0.23 0.01 51 1006.4
20260507193057 47 0.0 0.0 0.00 0.23 0.01 51 1006.5
20260507191615 47 0.0 0.0 0.00 0.23 0.01 50 1006.6
20260507190057 48 0.0 0.0 0.00 0.23 0.01 48 1006.8
20260507184606 51 0.0 0.0 0.00 0.33 0.01 48 1007.0
20260507183104 49 0.0 0.0 0.00 0.33 0.01 46 1006.9
20260507181556 49 0.0 0.0 0.00 0.33 0.01 48 1007.2
20260507180100 49 0.0 0.0 0.00 0.33 0.01 47 1007.3
20260507174555 49 0.0 0.0 0.00 0.49 0.01 49 1007.3
20260507173058 50 0.0 0.0 0.00 0.49 0.01 44 1007.2
20260507171557 50 0.0 0.0 0.00 0.49 0.01 43 1007.2
20260507170059 50 0.0 0.0 0.00 0.49 0.01 47 1007.2
20260507164624 49 0.0 0.0 0.00 0.61 0.01 48 1007.4
20260507163054 49 0.0 0.0 0.00 0.61 0.01 48 1007.7
20260507161601 48 0.0 0.0 0.00 0.61 0.01 50 1007.7
20260507160056 48 0.0 0.0 0.00 0.61 0.01 52 1007.9
20260507154553 47 0.0 0.0 0.00 0.65 0.01 54 1007.9
20260507153054 48 0.0 0.0 0.00 0.65 0.01 55 1008.1
20260507151554 47 0.0 0.0 0.00 0.65 0.01 60 1008.1
20260507150057 46 0.0 0.0 0.00 0.65 0.01 59 1008.1
20260507144600 46 0.0 0.0 0.00 0.66 0.01 53 1008.1
20260507143109 45 0.0 0.0 0.00 0.66 0.01 62 1008.1
20260507141613 45 0.0 0.0 0.00 0.66 0.01 60 1008.2
20260507140054 45 0.0 0.0 0.00 0.66 0.01 59 1008.0
20260507134556 45 0.0 0.0 0.00 0.66 0.01 61 1007.9